Weather History for KFGN - February, 2014

Change the Weather History Date:

Thursday, February 13, 2014

  Actual Average Record
Temperature  
Mean Temperature -2 °F -  
Max Temperature 6 °F 16 °F 37 °F (2005)
Min Temperature -9 °F 0 °F -20 °F (2000)
Degree Days  
Heating Degree Days 66    
Moisture  
Dew Point -3 °F    
Average Humidity 80    
Maximum Humidity 92    
Minimum Humidity 67    
Precipitation  
Precipitation 0.00 in - - ()
Sea Level Pressure  
Sea Level Pressure 29.66 in    
Wind  
Wind Speed 11 mph (NNE)    
Max Wind Speed 18 mph    
Max Gust Speed 22 mph    
Visibility 5 miles    
Events Snow    
Averages and records for this station are not official NWS values.
T = Trace of Precipitation, MM = Missing Value Source: NWS Daily Summary

Daily Weather History Graph

Daily Weather History Graph

Search for Another Location

Airport or City:

Trip Planner

Search our weather history database for the weather conditions in past years. The results will help you decide how hot, cold, wet, or windy it might be!

Date:

Astronomy

Feb. 13, 2014 Rise Set
Actual Time 7:32 AM CST 5:36 PM CST
Civil Twilight 6:59 AM CST 6:09 PM CST
Nautical Twilight 6:21 AM CST 6:46 PM CST
Astronomical Twilight 5:44 AM CST 7:23 PM CST
Moon 4:45 PM CST (2/13) 6:27 AM CST (2/13)
Length of Visible Light 11h 10m
Length of Day
10h 04m
Waxing Gibbous, 99% of the Moon is Illuminated
Feb 13
Waxing Gibbous
Feb 14
Full
Feb 22
Last Quarter
Mar 1
New
Mar 8
First Quarter

Hourly Weather History & Observations

Time (CST) Temp. Windchill Dew Point Humidity Pressure Visibility Wind Dir Wind Speed Gust Speed Precip Events Conditions
12:13 AM 3.2 °F -13.1 °F -0.4 °F 85% 29.63 in 4.0 mi East 11.5 mph 19.6 mph N/A Snow Light Snow
12:34 AM 5.0 °F -10.8 °F -0.4 °F 78% 29.62 in 2.5 mi East 11.5 mph 19.6 mph N/A Snow Light Snow
12:53 AM 5.0 °F -10.0 °F -0.4 °F 78% 29.60 in 1.5 mi East 10.4 mph 20.7 mph N/A Snow Light Snow
1:13 AM 5.0 °F -11.6 °F -0.4 °F 78% 29.59 in 1.8 mi East 12.7 mph 20.7 mph N/A Snow Light Snow
1:34 AM 5.0 °F -10.0 °F 1.4 °F 85% 29.57 in 2.0 mi East 10.4 mph 17.3 mph N/A Snow Light Snow
1:53 AM 5.0 °F -9.1 °F 1.4 °F 85% 29.56 in 1.5 mi ENE 9.2 mph 21.9 mph N/A Snow Light Snow
2:13 AM 5.0 °F -8.1 °F -0.4 °F 78% 29.55 in 1.8 mi East 8.1 mph - N/A Snow Light Snow
2:34 AM 5.0 °F -10.0 °F -0.4 °F 78% 29.53 in 10.0 mi East 10.4 mph - N/A Snow Light Snow
2:53 AM 5.0 °F -12.3 °F 1.4 °F 85% 29.53 in 2.0 mi ENE 13.8 mph 19.6 mph N/A Snow Light Snow
3:13 AM 5.0 °F -10.0 °F 1.4 °F 85% 29.53 in 1.2 mi East 10.4 mph 17.3 mph N/A Snow Light Snow
3:33 AM 6.8 °F -6.9 °F 1.4 °F 79% 29.52 in 1.0 mi East 9.2 mph - N/A Snow Snow
3:53 AM 6.8 °F -6.9 °F 1.4 °F 79% 29.52 in 1.2 mi ENE 9.2 mph 18.4 mph N/A Snow Light Snow
4:13 AM 6.8 °F -8.6 °F 1.4 °F 79% 29.53 in 1.2 mi ENE 11.5 mph - N/A Snow Light Snow
4:33 AM 5.0 °F -9.1 °F 1.4 °F 85% 29.53 in 1.2 mi NE 9.2 mph - N/A Snow Snow
4:53 AM 5.0 °F -10.8 °F 1.4 °F 85% 29.54 in 1.0 mi NNE 11.5 mph - N/A Snow Snow
5:14 AM 5.0 °F -12.3 °F 1.4 °F 85% 29.53 in 1.5 mi NE 13.8 mph - N/A Snow Light Snow
5:33 AM 5.0 °F -11.6 °F 1.4 °F 85% 29.52 in 1.8 mi NE 12.7 mph - N/A Snow Light Snow
5:53 AM 5.0 °F -10.8 °F -0.4 °F 78% 29.53 in 2.5 mi NE 11.5 mph - N/A Snow Light Snow
6:14 AM 5.0 °F -10.8 °F -0.4 °F 78% 29.53 in 2.0 mi NE 11.5 mph - N/A Snow Light Snow
6:33 AM 5.0 °F -12.3 °F -0.4 °F 78% 29.54 in 2.5 mi NE 13.8 mph - N/A Snow Light Snow
6:53 AM 3.2 °F -13.1 °F -0.4 °F 85% 29.54 in 2.0 mi NNE 11.5 mph 17.3 mph N/A Snow Light Snow
7:14 AM 3.2 °F -13.9 °F -0.4 °F 85% 29.55 in 2.0 mi NNE 12.7 mph - N/A Snow Light Snow
7:33 AM 3.2 °F -15.9 °F -0.4 °F 85% 29.56 in 2.5 mi NE 16.1 mph - N/A Snow Light Snow
7:53 AM 3.2 °F -13.1 °F -0.4 °F 85% 29.57 in 2.0 mi NE 11.5 mph - N/A Snow Light Snow
8:14 AM 3.2 °F -14.6 °F -0.4 °F 85% 29.58 in 1.5 mi NNE 13.8 mph - N/A Snow Light Snow
8:33 AM 3.2 °F -15.3 °F -0.4 °F 85% 29.60 in 1.0 mi NNE 15.0 mph 18.4 mph N/A Snow Light Snow
8:53 AM 3.2 °F -14.6 °F -0.4 °F 85% 29.60 in 1.0 mi NNE 13.8 mph - N/A Snow Light Snow
9:13 AM 3.2 °F -15.9 °F -0.4 °F 85% 29.62 in 1.5 mi NNE 16.1 mph - N/A Snow Light Snow
9:33 AM 3.2 °F -14.6 °F -0.4 °F 85% 29.62 in 1.8 mi NNE 13.8 mph - N/A Snow Light Snow
9:54 AM 3.2 °F -16.5 °F -2.2 °F 78% 29.63 in 2.0 mi NNE 17.3 mph - N/A Snow Light Snow
10:13 AM 3.2 °F -16.5 °F -0.4 °F 85% 29.64 in 2.0 mi NNE 17.3 mph - N/A Snow Light Snow
10:33 AM 3.2 °F -16.5 °F -2.2 °F 78% 29.65 in 3.0 mi NNE 17.3 mph - N/A Snow Light Snow
10:54 AM 3.2 °F -17.1 °F -2.2 °F 78% 29.65 in 2.5 mi North 18.4 mph - N/A Snow Light Snow
11:13 AM 5.0 °F -14.2 °F -2.2 °F 72% 29.66 in 2.0 mi NNE 17.3 mph - N/A Snow Light Snow
11:33 AM 5.0 °F -14.2 °F -0.4 °F 78% 29.67 in 1.0 mi North 17.3 mph - N/A Snow Snow
11:54 AM 5.0 °F -14.2 °F -0.4 °F 78% 29.66 in 0.5 mi North 17.3 mph - N/A Snow Heavy Snow
12:13 PM 5.0 °F -13.6 °F -0.4 °F 78% 29.67 in 0.5 mi NNE 16.1 mph - N/A Snow Heavy Snow
12:33 PM 6.8 °F -11.3 °F -2.2 °F 67% 29.66 in 0.5 mi NNE 16.1 mph - N/A Snow Heavy Snow
12:54 PM 6.8 °F -11.8 °F -2.2 °F 67% 29.66 in 0.2 mi NNE 17.3 mph - N/A Snow Heavy Snow
1:33 PM 6.8 °F -11.8 °F -2.2 °F 67% 29.67 in 2.0 mi NNE 17.3 mph - N/A Snow Heavy Snow
1:53 PM 6.8 °F -11.3 °F -2.2 °F 67% 29.68 in 0.5 mi NNE 16.1 mph - N/A Snow Heavy Snow
2:13 PM 6.8 °F -9.3 °F -2.2 °F 67% 29.69 in 7.0 mi North 12.7 mph - N/A Snow Light Snow
2:33 PM 6.8 °F -10.0 °F -0.4 °F 72% 29.69 in 7.0 mi North 13.8 mph - N/A   Overcast
2:54 PM 6.8 °F -9.3 °F -0.4 °F 72% 29.70 in 2.5 mi North 12.7 mph - N/A Snow Light Snow
3:13 PM 6.8 °F -10.0 °F -0.4 °F 72% 29.70 in 3.0 mi North 13.8 mph - N/A Snow Light Snow
3:33 PM 6.8 °F -10.7 °F -2.2 °F 67% 29.72 in 10.0 mi North 15.0 mph - N/A   Mostly Cloudy
3:53 PM 6.8 °F -8.6 °F -2.2 °F 67% 29.72 in 10.0 mi North 11.5 mph - N/A   Overcast
4:13 PM 6.8 °F -7.8 °F -0.4 °F 72% 29.72 in 10.0 mi NNE 10.4 mph - N/A   Overcast
4:34 PM 5.0 °F -11.6 °F -2.2 °F 72% 29.73 in 10.0 mi North 12.7 mph - N/A   Mostly Cloudy
4:53 PM 3.2 °F -14.6 °F -2.2 °F 78% 29.75 in 10.0 mi North 13.8 mph - N/A   Mostly Cloudy
5:14 PM 3.2 °F -11.3 °F -2.2 °F 78% 29.75 in 10.0 mi NNE 9.2 mph - N/A   Scattered Clouds
5:33 PM 3.2 °F -12.2 °F -4.0 °F 72% 29.76 in 10.0 mi North 10.4 mph - N/A   Clear
5:54 PM 1.4 °F -14.5 °F -4.0 °F 78% 29.76 in 10.0 mi NNE 10.4 mph - N/A   Clear
6:13 PM 1.4 °F -11.3 °F -5.8 °F 72% 29.78 in 10.0 mi North 6.9 mph - N/A   Scattered Clouds
6:33 PM 1.4 °F -9.9 °F -4.0 °F 78% 29.79 in 10.0 mi North 5.8 mph - N/A   Clear
6:53 PM -0.4 °F -13.4 °F -5.8 °F 78% 29.78 in 10.0 mi North 6.9 mph - N/A   Clear
7:14 PM -0.4 °F -13.4 °F -5.8 °F 78% 29.78 in 10.0 mi North 6.9 mph - N/A   Clear
7:33 PM -4.0 °F -12.4 °F -7.6 °F 85% 29.79 in 10.0 mi North 3.5 mph - N/A   Clear
7:54 PM -2.2 °F -10.4 °F -7.6 °F 78% 29.79 in 10.0 mi North 3.5 mph - N/A   Clear
8:13 PM -5.8 °F -14.5 °F -9.4 °F 84% 29.79 in 10.0 mi North 3.5 mph - N/A   Clear
8:34 PM -4.0 °F -16.3 °F -7.6 °F 85% 29.79 in 10.0 mi NNW 5.8 mph - N/A   Clear
8:53 PM -7.6 °F -18.8 °F -11.2 °F 84% 29.79 in 10.0 mi North 4.6 mph - N/A   Clear
9:13 PM -7.6 °F - -9.4 °F 92% 29.80 in 10.0 mi Calm Calm - N/A   Clear
9:33 PM -7.6 °F - -11.2 °F 84% 29.80 in 10.0 mi Calm Calm - N/A   Clear
9:54 PM -7.6 °F -16.5 °F -11.2 °F 84% 29.80 in 10.0 mi North 3.5 mph - N/A   Clear
10:13 PM -9.4 °F - -13.0 °F 84% 29.81 in 10.0 mi Calm Calm - N/A   Clear
10:34 PM -7.6 °F -22.1 °F -11.2 °F 84% 29.81 in 10.0 mi North 6.9 mph - N/A   Clear
10:53 PM -5.8 °F -18.4 °F -9.4 °F 84% 29.81 in 10.0 mi North 5.8 mph - N/A   Clear
11:13 PM -7.6 °F -18.8 °F -9.4 °F 92% 29.82 in 10.0 mi North 4.6 mph - N/A   Clear
11:34 PM -7.6 °F -18.8 °F -11.2 °F 84% 29.82 in 10.0 mi NNW 4.6 mph - N/A   Clear
11:53 PM -5.8 °F -16.7 °F -9.4 °F 84% 29.83 in 10.0 mi NNW 4.6 mph - N/A   Clear